• In Latvia
  • List of Countries
  • For 7 days
  • Water Temperature
  • Satellite Maps
  • Weather Map
  • Weather Widgets
  • user-avatar
    Login

    Hourly Weather Escaldes-Engordany

    Today, 19 February, Sunday

    Time Temperature Precipitation Wind Pressure Humidity
    00:00 -2°C° 0 mm 0 mps 639 mmHg 95%
    01:00 -2°C° 0 mm 0 mps 639 mmHg 94%
    02:00 -2°C° 0 mm 0 mps 639 mmHg 94%
    03:00 -3°C° 0 mm 0 mps 639 mmHg 94%
    04:00 -3°C° 0 mm 0 mps 639 mmHg 93%
    05:00 -2°C° 0 mm 1 mps 640 mmHg 93%
    06:00 -2°C° 0 mm 1 mps 640 mmHg 92%
    07:00 0°C° 0 mm 1 mps 641 mmHg 86%
    08:00 +2°C° 0 mm 1 mps 642 mmHg 79%
    09:00 +4°C° 0 mm 1 mps 643 mmHg 73%
    10:00 +5°C° 0 mm 1 mps 644 mmHg 68%
    11:00 +7°C° 0 mm 1 mps 644 mmHg 64%
    12:00 +7°C° 0 mm 2 mps 645 mmHg 60%
    13:00 +7°C° 0 mm 2 mps 644 mmHg 62%
    14:00 +7°C° 0 mm 2 mps 644 mmHg 63%
    15:00 +7°C° 0 mm 2 mps 644 mmHg 64%
    16:00 +5°C° 0 mm 2 mps 643 mmHg 73%
    17:00 +3°C° 0 mm 2 mps 642 mmHg 81%
    18:00 +1°C° 0 mm 2 mps 642 mmHg 89%
    19:00 -1°C° 0 mm 2 mps 642 mmHg 87%
    20:00 -1°C° 0 mm 2 mps 642 mmHg 85%
    21:00 -2°C° 0 mm 2 mps 642 mmHg 84%
    22:00 -2°C° 0 mm 2 mps 642 mmHg 84%
    23:00 -2°C° 0 mm 2 mps 642 mmHg 84%

    Tomorrow, 20 February, Monday

    Time Temperature Precipitation Wind Pressure Humidity
    00:00 -2°C° 0 mm 2 mps 642 mmHg 84%
    01:00 -3°C° 0 mm 2 mps 642 mmHg 85%
    02:00 -3°C° 0 mm 2 mps 642 mmHg 86%
    03:00 -3°C° 0 mm 2 mps 642 mmHg 87%
    04:00 -3°C° 0 mm 2 mps 641 mmHg 87%
    05:00 -3°C° 0 mm 2 mps 641 mmHg 87%
    06:00 -3°C° 0 mm 2 mps 641 mmHg 87%
    07:00 -1°C° 0 mm 2 mps 642 mmHg 79%
    08:00 +1°C° 0 mm 2 mps 643 mmHg 71%
    09:00 +3°C° 0 mm 2 mps 644 mmHg 63%
    10:00 +5°C° 0 mm 2 mps 644 mmHg 58%
    11:00 +6°C° 0 mm 2 mps 645 mmHg 53%
    12:00 +8°C° 0 mm 2 mps 645 mmHg 48%
    13:00 +8°C° 0 mm 2 mps 644 mmHg 50%
    14:00 +8°C° 0 mm 2 mps 644 mmHg 52%
    15:00 +8°C° 0 mm 2 mps 644 mmHg 54%
    16:00 +5°C° 0 mm 2 mps 643 mmHg 65%
    17:00 +3°C° 0 mm 2 mps 642 mmHg 75%
    18:00 -1°C° 0 mm 2 mps 641 mmHg 86%
    19:00 -1°C° 0 mm 2 mps 642 mmHg 85%
    20:00 -1°C° 0 mm 2 mps 642 mmHg 84%
    21:00 -2°C° 0 mm 2 mps 642 mmHg 83%
    22:00 -2°C° 0 mm 2 mps 642 mmHg 83%
    23:00 -2°C° 0 mm 2 mps 642 mmHg 82%

    Day after tomorrow, 21 February, Tuesday

    Time Temperature Precipitation Wind Pressure Humidity
    00:00 -2°C° 0 mm 2 mps 642 mmHg 82%
    01:00 -2°C° 0 mm 2 mps 642 mmHg 83%
    02:00 -2°C° 0 mm 2 mps 642 mmHg 83%
    03:00 -2°C° 0 mm 2 mps 641 mmHg 84%
    04:00 -2°C° 0 mm 2 mps 641 mmHg 86%
    05:00 -2°C° 0 mm 2 mps 641 mmHg 88%
    06:00 0°C° 0 mm 1 mps 641 mmHg 89%
    07:00 +2°C° 0 mm 1 mps 642 mmHg 83%
    08:00 +4°C° 0 mm 1 mps 643 mmHg 77%
    09:00 +7°C° 0 mm 1 mps 644 mmHg 71%
    10:00 +8°C° 0 mm 1 mps 644 mmHg 67%
    11:00 +9°C° 0 mm 1 mps 644 mmHg 64%
    12:00 +10°C° 0 mm 1 mps 644 mmHg 60%
    13:00 +10°C° 0 mm 1 mps 644 mmHg 61%
    14:00 +10°C° 0 mm 1 mps 644 mmHg 63%
    15:00 +10°C° 0 mm 1 mps 643 mmHg 65%
    16:00 +8°C° 0 mm 1 mps 642 mmHg 74%
    17:00 +5°C° 0 mm 1 mps 641 mmHg 84%
    18:00 +2°C° 0 mm 1 mps 640 mmHg 93%
    19:00 +2°C° 0 mm 1 mps 640 mmHg 93%
    20:00 +2°C° 0 mm 1 mps 640 mmHg 93%
    21:00 +2°C° 0 mm 1 mps 640 mmHg 93%
    22:00 +1°C° 0 mm 1 mps 640 mmHg 92%
    23:00 +1°C° 0 mm 1 mps 640 mmHg 91%

    22 February, Wednesday

    Time Temperature Precipitation Wind Pressure Humidity
    00:00 +1°C° 0 mm 1 mps 640 mmHg 90%
    01:00 +1°C° 0 mm 1 mps 639 mmHg 89%
    02:00 0°C° 0 mm 1 mps 639 mmHg 88%
    03:00 0°C° 0 mm 1 mps 639 mmHg 88%
    04:00 -1°C° 0 mm 0 mps 639 mmHg 87%
    05:00 -1°C° 0 mm 0 mps 639 mmHg 87%
    06:00 -1°C° 0 mm 0 mps 639 mmHg 86%
    07:00 +1°C° 0 mm 0 mps 640 mmHg 78%
    08:00 +4°C° 0 mm 0 mps 641 mmHg 70%
    09:00 +7°C° 0 mm 0 mps 642 mmHg 61%
    10:00 +9°C° 0 mm 1 mps 642 mmHg 59%
    11:00 +10°C° 0 mm 1 mps 643 mmHg 56%
    12:00 +11°C° 0 mm 1 mps 643 mmHg 53%
    13:00 +11°C° 0 mm 1 mps 642 mmHg 55%
    14:00 +11°C° 0 mm 1 mps 642 mmHg 58%
    15:00 +11°C° 0 mm 1 mps 641 mmHg 60%
    16:00 +8°C° 0 mm 1 mps 640 mmHg 71%
    17:00 +5°C° 0 mm 1 mps 639 mmHg 82%
    18:00 +1°C° 0 mm 0 mps 638 mmHg 94%
    19:00 +1°C° 0 mm 0 mps 638 mmHg 94%
    20:00 +1°C° 0 mm 0 mps 638 mmHg 94%
    21:00 0°C° 0 mm 0 mps 638 mmHg 94%
    22:00 0°C° 0 mm 0 mps 638 mmHg 94%
    23:00 +1°C° 0 mm 1 mps 638 mmHg 93%

    23 February, Thursday

    Time Temperature Precipitation Wind Pressure Humidity
    00:00 +1°C° 0 mm 1 mps 638 mmHg 93%
    01:00 +1°C° 0 mm 1 mps 638 mmHg 93%
    02:00 +1°C° 0 mm 1 mps 637 mmHg 92%
    03:00 +1°C° 0 mm 1 mps 637 mmHg 92%
    04:00 0°C° 0 mm 1 mps 637 mmHg 91%
    05:00 0°C° 0 mm 1 mps 636 mmHg 90%
    06:00 0°C° 0 mm 1 mps 636 mmHg 89%
    07:00 +1°C° 0 mm 0 mps 637 mmHg 78%
    08:00 +4°C° 0 mm 0 mps 638 mmHg 67%
    09:00 +7°C° 0 mm 0 mps 640 mmHg 55%
    10:00 +9°C° 0 mm 1 mps 640 mmHg 51%
    11:00 +10°C° 0 mm 1 mps 640 mmHg 47%
    12:00 +12°C° 0 mm 2 mps 640 mmHg 42%
    13:00 +12°C° 0 mm 2 mps 639 mmHg 45%
    14:00 +10°C° 0 mm 2 mps 639 mmHg 48%
    15:00 +11°C° 0 mm 1 mps 638 mmHg 51%
    16:00 +8°C° 0 mm 1 mps 637 mmHg 64%
    17:00 +6°C° 0 mm 1 mps 636 mmHg 77%
    18:00 +3°C° 0 mm 1 mps 636 mmHg 91%
    19:00 +3°C° 0 mm 1 mps 636 mmHg 92%
    20:00 +3°C° 0 mm 1 mps 636 mmHg 92%
    21:00 +3°C° 0 mm 1 mps 637 mmHg 93%
    22:00 +3°C° 0 mm 1 mps 636 mmHg 94%
    23:00 +1°C° 0 mm 2 mps 636 mmHg 94%

    24 February, Friday

    Time Temperature Precipitation Wind Pressure Humidity
    00:00 +1°C° 0 mm 2 mps 636 mmHg 94%
    01:00 +1°C° 0 mm 2 mps 636 mmHg 93%
    02:00 +1°C° 0 mm 2 mps 636 mmHg 93%
    03:00 +1°C° 0 mm 2 mps 635 mmHg 92%
    04:00 +1°C° 0 mm 2 mps 635 mmHg 91%
    05:00 -1°C° 0 mm 2 mps 635 mmHg 90%
    06:00 -1°C° 0 mm 3 mps 635 mmHg 89%
    07:00 0°C° 0 mm 3 mps 636 mmHg 83%
    08:00 +2°C° 0 mm 3 mps 637 mmHg 77%
    09:00 +3°C° 0 mm 3 mps 638 mmHg 71%
    10:00 +4°C° 0 mm 3 mps 638 mmHg 69%
    11:00 +4°C° 0 mm 3 mps 638 mmHg 67%
    12:00 +5°C° 0 mm 3 mps 639 mmHg 66%
    13:00 +5°C° 0 mm 3 mps 639 mmHg 64%
    14:00 +5°C° 0 mm 3 mps 639 mmHg 62%
    15:00 +5°C° 0 mm 4 mps 639 mmHg 60%
    16:00 +3°C° 0 mm 3 mps 638 mmHg 68%
    17:00 +1°C° 0 mm 3 mps 638 mmHg 76%
    18:00 0°C° 0 mm 3 mps 638 mmHg 84%
    19:00 -1°C° 0 mm 3 mps 639 mmHg 83%
    20:00 -1°C° 0 mm 3 mps 639 mmHg 83%
    21:00 -1°C° 0 mm 3 mps 640 mmHg 83%
    22:00 -2°C° 0 mm 3 mps 640 mmHg 83%
    23:00 -2°C° 0 mm 3 mps 640 mmHg 83%
    Show more